Regional Weather Roundup
Issued by NWS Jackson, KY

Home | Current Version | Previous Version | Text Only | Print | Product List | Glossary On
Versions: 1 2 3 4 5 6 7 8 9 10 11 12 13 14 15 16 17 18 19 20 21 22 23 24 25 26 27 28 29 30 31 32 33 34 35 36 37 38 39 40 41 42 43 44 45 46 47 48 49 50
000
ASUS43 KJKL 241019
RWRJKL

EAST KENTUCKY HOURLY WEATHER ROUNDUP
NATIONAL WEATHER SERVICE JACKSON KY
600 AM EDT THU JUL 24 2014

NOTE: "FAIR" INDICATES FEW OR NO CLOUDS BELOW 12,000 FEET WITH
NO SIGNIFICANT WEATHER AND/OR OBSTRUCTIONS TO VISIBILITY.

* THESE REPORTS ARE NOT UNDER NWS QUALITY CONTROL AND MAY NOT
  REPORT WEATHER SUCH AS PRECIPITATION AND FOG.

KYZ079-080-083-085-087-088-110-112-115-119-120-241100
...EASTERN KENTUCKY...

CITY           SKY/WX    TMP DP  RH WIND       PRES   REMARKS
JACKSON        FOG       68  66  93 CALM      29.97R VSB 1/4
LONDON         CLOUDY    69  67  93 CALM      29.97S FOG
SOMERSET*      CLOUDY    70  70 100 CALM      29.97S FOG
MONTICELLO*    CLOUDY    70  70 100 CALM      29.98S FOG
WILLIAMSBURG*  CLOUDY    66  66 100 CALM      29.98R
MIDDLESBORO*   CLOUDY    67  67 100 CALM      29.97S
HARLAN APT*    CLOUDY    66  66 100 MISG      29.98F VSB<1/4
BLACK MTN*       N/A     63  63 100 SW2         N/A
PIKEVILLE APT* FOG       66  66 100 CALM      29.98R VSB 0
BIG SANDY*     FOG       68  68 100 CALM      29.97S VSB 1
MOREHEAD APT*  CLOUDY    68  66  94 VRB6      29.99R
ASHLAND*       CLOUDY    64  59  82 CALM      29.95
$$

KYZ035-036-041-042-044-050-067-078-099-241100
...CENTRAL KENTUCKY...

CITY           SKY/WX    TMP DP  RH WIND       PRES   REMARKS
MT STERLING*   RAIN      64  64 100 NE7       29.98R
FLEMING/MASON* LGT RAIN  63  61  94 W9        30.01R
DANVILLE*      CLOUDY    68  68 100 N6        29.97R
RICHMOND*      CLOUDY    70  66  88 W3        29.95R
LEXINGTON      CLOUDY    67  62  84 N12       29.98R
FRANKFORT      CLOUDY    66  62  87 N10G18    29.98R
$$

KYZ091>093-OHZ055-061-077-WVZ005-015-034-035-042-241100
...SOUTHERN OHIO/WEST VIRGINIA...

CITY           SKY/WX    TMP DP  RH WIND       PRES   REMARKS
COVINGTON      MOCLDY    64  54  69 NE16      30.01R
COLUMBUS       PTCLDY    59  54  83 N7        30.03R
DAYTON         PTCLDY    59  56  89 N8        30.06R
WILMINGTON     CLOUDY    59  55  87 NE12      30.02R
HUNTINGTON     LGT RAIN  65  62  90 N7        29.96R
CHARLESTON     CLOUDY    69  69 100 N6        29.95R
PINEVILLE*     CLOUDY    70  70 100 MISG      30.03R FOG
BECKLEY        CLOUDY    67  65  93 CALM      30.02R
BLUEFIELD      CLOUDY    68  65  90 SW5       30.03R FOG
$$

VAZ002-007-008-TNZ017-027-036-066-071-241100
...SOUTHWEST VIRGINIA/EAST TENNESSEE...

CITY           SKY/WX    TMP DP  RH WIND       PRES   REMARKS
WISE*          MOCLDY    64  64 100 SW5       30.04R FOG
JONESVILLE*    FOG       68  68 100 CALM      30.00R VSB<1/4
ABINGDON*      LGT RAIN  70  70 100 CALM      30.00S
BRISTOL        CLOUDY    71  67  87 CALM      29.98R
KNOXVILLE      CLOUDY    73  69  87 CALM      29.94S
OAK RIDGE      CLOUDY    70  69  97 CALM      29.98R FOG
CROSSVILLE     CLOUDY    68  66  93 W3        30.01R FOG
NASHVILLE      CLOUDY    72  69  90 NW6       29.96R
$$

...KEY TO REMARKS...
VSB - VISIBILITY IN MILES
WCI - WIND CHILL INDEX
HX  - HEAT INDEX

$$



USA.gov is the U.S. government's official web portal to all federal, state and local government web resources and services.